TimeEST,TemperatureF,Dew PointF,Humidity,Sea Level PressureIn,VisibilityMPH,Wind Direction,Wind SpeedMPH,Gust SpeedMPH,PrecipitationIn,Events,Conditions,WindDirDegrees,DateUTC
12:15 AM,48.2,39.6,72,30.46,10.0,SW,4.6,-,N/A,,Overcast,220,2013-11-06 05:15:00
12:35 AM,48.2,40.8,76,30.46,10.0,SSW,5.8,-,N/A,,Overcast,200,2013-11-06 05:35:00
12:55 AM,48.4,41.5,77,30.45,10.0,South,4.6,-,N/A,,Overcast,180,2013-11-06 05:55:00
1:35 AM,48.4,41.9,78,30.45,10.0,SSW,3.5,-,N/A,,Overcast,210,2013-11-06 06:35:00
1:55 AM,48.2,41.9,79,30.44,10.0,Calm,Calm,-,N/A,,Overcast,0,2013-11-06 06:55:00
2:15 AM,48.2,41.4,77,30.44,10.0,SSW,3.5,-,N/A,,Overcast,210,2013-11-06 07:15:00
2:35 AM,48.2,41.2,77,30.43,10.0,Calm,Calm,-,N/A,,Overcast,0,2013-11-06 07:35:00
2:55 AM,48.2,40.5,75,30.43,10.0,SSW,3.5,-,N/A,,Overcast,210,2013-11-06 07:55:00
3:15 AM,48.2,41.0,76,30.42,10.0,Calm,Calm,-,N/A,,Overcast,0,2013-11-06 08:15:00
3:35 AM,48.2,41.0,76,30.41,10.0,SW,3.5,-,N/A,,Overcast,220,2013-11-06 08:35:00
3:55 AM,48.2,41.4,77,30.40,10.0,SW,3.5,-,N/A,,Overcast,220,2013-11-06 08:55:00
4:15 AM,48.2,41.7,78,30.40,10.0,Calm,Calm,-,N/A,,Overcast,0,2013-11-06 09:15:00
4:35 AM,48.2,42.3,80,30.40,10.0,SW,4.6,-,N/A,,Overcast,220,2013-11-06 09:35:00
4:55 AM,48.4,42.3,79,30.40,10.0,Calm,Calm,-,N/A,,Overcast,0,2013-11-06 09:55:00
5:15 AM,48.2,42.4,80,30.40,10.0,South,3.5,-,N/A,,Overcast,190,2013-11-06 10:15:00
5:35 AM,48.2,42.8,82,30.40,10.0,Calm,Calm,-,N/A,,Overcast,0,2013-11-06 10:35:00
5:55 AM,48.4,42.8,81,30.40,10.0,South,4.6,-,N/A,,Overcast,190,2013-11-06 10:55:00
6:15 AM,48.6,43.2,82,30.39,10.0,SSW,5.8,-,N/A,,Overcast,200,2013-11-06 11:15:00
6:35 AM,48.6,43.3,82,30.39,10.0,SSW,3.5,-,N/A,,Overcast,210,2013-11-06 11:35:00
6:55 AM,47.8,43.2,84,30.39,10.0,SSW,3.5,-,N/A,,Overcast,200,2013-11-06 11:55:00
7:15 AM,47.3,43.2,86,30.39,10.0,SW,3.5,-,N/A,,Overcast,220,2013-11-06 12:15:00
7:35 AM,46.9,43.0,86,30.39,10.0,SW,3.5,-,N/A,,Overcast,220,2013-11-06 12:35:00
7:55 AM,46.9,43.2,87,30.39,7.0,SSW,3.5,-,N/A,,Mostly Cloudy,210,2013-11-06 12:55:00
8:15 AM,49.5,44.8,84,30.38,10.0,SSW,4.6,-,N/A,,Mostly Cloudy,210,2013-11-06 13:15:00
8:35 AM,50.9,44.8,80,30.38,10.0,SW,6.9,-,N/A,,Scattered Clouds,220,2013-11-06 13:35:00
8:55 AM,51.4,45.0,79,30.38,10.0,SW,5.8,-,N/A,,Scattered Clouds,230,2013-11-06 13:55:00
9:15 AM,54.0,45.1,72,30.37,10.0,SSW,5.8,-,N/A,,Scattered Clouds,200,2013-11-06 14:15:00
9:35 AM,55.4,44.6,67,30.37,10.0,SSW,6.9,-,N/A,,Clear,200,2013-11-06 14:35:00
9:55 AM,56.1,45.0,66,30.36,10.0,South,8.1,-,N/A,,Clear,170,2013-11-06 14:55:00
10:15 AM,57.0,44.4,63,30.35,10.0,South,6.9,-,N/A,,Clear,170,2013-11-06 15:15:00
10:35 AM,58.6,44.2,59,30.35,10.0,SW,8.1,-,N/A,,Clear,220,2013-11-06 15:35:00
10:55 AM,59.5,44.1,57,30.34,10.0,WSW,8.1,-,N/A,,Clear,240,2013-11-06 15:55:00
11:15 AM,61.0,44.2,54,30.34,10.0,SW,8.1,-,N/A,,Clear,230,2013-11-06 16:15:00
11:35 AM,61.7,44.6,53,30.33,10.0,South,4.6,-,N/A,,Clear,180,2013-11-06 16:35:00
11:55 AM,63.1,44.8,51,30.32,10.0,SW,5.8,-,N/A,,Scattered Clouds,220,2013-11-06 16:55:00
12:15 PM,64.9,45.3,49,30.31,10.0,South,5.8,-,N/A,,Scattered Clouds,190,2013-11-06 17:15:00
12:35 PM,64.8,45.1,49,30.29,10.0,South,8.1,-,N/A,,Clear,190,2013-11-06 17:35:00
12:55 PM,65.7,45.3,48,30.28,10.0,SW,6.9,10.4,N/A,,Clear,220,2013-11-06 17:55:00
1:15 PM,65.7,45.1,47,30.26,10.0,South,6.9,-,N/A,,Scattered Clouds,190,2013-11-06 18:15:00
1:35 PM,67.5,45.7,46,30.25,10.0,SW,19.6,-,N/A,,Scattered Clouds,230,2013-11-06 18:35:00
1:55 PM,65.8,45.3,47,30.25,10.0,SW,18.4,24.2,N/A,,Scattered Clouds,230,2013-11-06 18:55:00
2:15 PM,66.9,45.5,46,30.24,10.0,SW,15.0,19.6,N/A,,Scattered Clouds,230,2013-11-06 19:15:00
2:35 PM,67.1,45.5,46,30.23,10.0,SW,15.0,19.6,N/A,,Clear,230,2013-11-06 19:35:00
2:55 PM,67.3,45.1,45,30.22,10.0,SW,15.0,21.9,N/A,,Clear,220,2013-11-06 19:55:00
3:15 PM,65.7,45.3,48,30.22,10.0,SSW,10.4,-,N/A,,Clear,210,2013-11-06 20:15:00
3:35 PM,65.1,45.7,49,30.22,10.0,South,6.9,-,N/A,,Clear,180,2013-11-06 20:35:00
3:55 PM,63.9,45.9,52,30.21,10.0,South,9.2,-,N/A,,Clear,170,2013-11-06 20:55:00
4:15 PM,63.0,45.7,53,30.20,10.0,SSE,6.9,-,N/A,,Clear,150,2013-11-06 21:15:00
4:35 PM,62.8,45.7,54,30.20,10.0,SSE,8.1,-,N/A,,Clear,160,2013-11-06 21:35:00
4:55 PM,62.1,45.9,55,30.19,10.0,South,8.1,-,N/A,,Clear,170,2013-11-06 21:55:00
5:15 PM,61.0,45.7,57,30.18,10.0,South,9.2,-,N/A,,Clear,170,2013-11-06 22:15:00
5:35 PM,60.1,45.7,59,30.18,10.0,South,5.8,-,N/A,,Clear,170,2013-11-06 22:35:00
5:55 PM,59.7,45.5,59,30.18,10.0,SSE,8.1,-,N/A,,Clear,160,2013-11-06 22:55:00
6:15 PM,59.2,44.8,59,30.18,10.0,South,9.2,-,N/A,,Clear,180,2013-11-06 23:15:00
6:35 PM,57.7,44.6,62,30.18,10.0,SSW,3.5,-,N/A,,Clear,210,2013-11-06 23:35:00
6:55 PM,57.0,44.6,63,30.18,10.0,South,6.9,-,N/A,,Clear,190,2013-11-06 23:55:00
7:15 PM,57.2,44.6,63,30.18,10.0,South,5.8,-,N/A,,Clear,190,2013-11-07 00:15:00
7:35 PM,55.6,44.6,67,30.18,10.0,South,4.6,-,N/A,,Clear,190,2013-11-07 00:35:00
7:55 PM,55.8,45.1,67,30.17,10.0,SSW,5.8,-,N/A,,Clear,200,2013-11-07 00:55:00
8:15 PM,52.2,44.2,74,30.16,10.0,SSW,4.6,-,N/A,,Clear,210,2013-11-07 01:15:00
8:35 PM,54.7,45.3,71,30.16,10.0,SSW,5.8,-,N/A,,Clear,210,2013-11-07 01:35:00
8:55 PM,51.3,44.2,77,30.15,10.0,SW,3.5,-,N/A,,Clear,230,2013-11-07 01:55:00
9:15 PM,51.8,44.6,76,30.15,10.0,SW,3.5,-,N/A,,Clear,230,2013-11-07 02:15:00
9:35 PM,48.9,43.7,82,30.15,10.0,Calm,Calm,-,N/A,,Clear,0,2013-11-07 02:35:00
9:55 PM,49.1,43.2,80,30.14,10.0,Calm,Calm,-,N/A,,Clear,0,2013-11-07 02:55:00
10:15 PM,48.6,42.8,80,30.14,10.0,Calm,Calm,-,N/A,,Clear,0,2013-11-07 03:15:00
10:35 PM,46.2,41.5,84,30.12,10.0,SSE,5.8,-,N/A,,Clear,160,2013-11-07 03:35:00
10:55 PM,46.8,42.3,84,30.11,10.0,WSW,4.6,-,N/A,,Clear,240,2013-11-07 03:55:00
11:15 PM,46.0,42.1,86,30.11,10.0,Calm,Calm,-,N/A,,Clear,0,2013-11-07 04:15:00
11:35 PM,45.3,40.8,84,30.10,10.0,Calm,Calm,-,N/A,,Clear,0,2013-11-07 04:35:00
11:55 PM,44.6,40.8,87,30.10,10.0,Calm,Calm,-,N/A,,Clear,0,2013-11-07 04:55:00